TUBIN
1 48900U 21059X   25277.84762145  .00125945  00000-0  85174-3 0  9992
2 48900  97.6746  97.6779 0002339 163.3549 196.7792 15.74666555238391
LEDSAT
1 49069U 21073D   25277.83354043  .00818826  31173-3  17176-2 0  9999
2 49069  97.3680   6.1737 0006373 293.7582  66.3027 15.98965633229857
CUTE
1 49263U 21088D   25277.82202292  .00034458  00000-0  55421-3 0  9997
2 49263  97.4419 357.8739 0006644 155.1292 205.0282 15.52898285222588
TeikyoSat 4
1 49396U 21102B   25277.67795718  .00003311  00000-0  21760-3 0  9997
2 49396  97.4005 311.8524 0014275  92.1659 268.1204 15.08180213214192
Z-Sat
1 49399U 21102E   25277.79979889  .00008033  00000-0  42570-3 0  9994
2 49399  97.3694 315.8204 0019058  60.6003 299.7129 15.15490576214723
KOSEN 1
1 49402U 21102H   25277.57568353  .00012484  00000-0  54687-3 0  9992
2 49402  97.3592 319.9407 0016063  35.3154 324.9143 15.22035155215076
HO-113
1 50466U 21131B   25277.84061384  .00001379  00000-0  44310-3 0  9991
2 50466  98.5075   6.6104 0005016 135.5628 224.5964 14.40970463198330
SNUGLITE 2
1 52899U 22065F   25277.82576987  .00002521  00000-0  49491-3 0  9993
2 52899  98.1855  58.7900 0008667 104.3179 255.8985 14.63544679173633
UmKA 1 (RS40S)
1 57172U 23091G   25277.83448642  .00010859  00000-0  55419-3 0  9999
2 57172  97.5459 332.6243 0012454 290.3508  69.6387 15.16831922125240
CubeBel-2 (EU11S)
1 57175U 23091K   25277.85736812  .00017212  00000-0  76076-3 0  9995
2 57175  97.5455 334.5733 0010083 295.5878  64.4315 15.21733899125375
ENSO
1 58470U 23185J   25274.64559369  .00294403  00000-0  17996-2 0  9996
2 58470  97.3585 354.6123 0002855 341.7791  18.3372 15.76527964102851
SONATE-2
1 59112U 24043Q   25277.82973117  .00034400  00000-0  84897-3 0  9992
2 59112  97.5279  51.7922 0010427  56.8909 303.3336 15.40394005 88352
MO-122
1 60209U 24125G   25276.57456761  .00042753  00000-0  10314-2 0  9996
2 60209  97.2644 127.1450 0018590  80.1587 280.1758 15.40911434 69786
GRBBeta
1 60237U 24128C   25277.75237066  .00008291  00000-0  59365-3 0  9995
2 60237  61.9925  30.7098 0056942  82.2169 278.5382 15.03807925 67810
Curium One
1 60242U 24128H   25277.70203847  .00015290  00000-0  98711-3 0  9991
2 60242  61.9818  27.2460 0056442  78.7021 282.0408 15.07162736 67876
ROBUSTA-3A
1 60243U 24128J   25277.61140696  .00014747  00000-0  96808-3 0  9995
2 60243  61.9893  28.8117 0056374  76.2667 284.4692 15.06576575 67846
CatSat
1 60246U 24125J   25277.55205767  .00038935  00000-0  11268-2 0  9990
2 60246  97.2459 125.9414 0039577  38.8038 321.6035 15.34696479 67897
HYPERVIEW-1G (RS66S)
1 61772U 24199AP  25277.86635831  .00046986  00000-0  11225-2 0  9997
2 61772  97.3326 146.7573 0013726 124.6734 235.5809 15.41268202 94987
AO-123
1 61781U 24199AY  25277.91466546  .00013768  00000-0  47243-3 0  9990
2 61781  97.3352 144.1796 0016467 136.0299 224.2255 15.30138005 94810
ZIMSAT 2
1 61783U 24199BA  25277.81841061  .00114920  00000-0  18610-2 0  9997
2 61783  97.3269 148.5662 0012689 116.6303 243.6252 15.52307144 98251
HADES-R (SO-124)
1 62690U 25009CK  25276.18745340  .00145426  00000-0  35702-2 0  9994
2 62690  97.3995 357.1923 0001264  42.1528 317.9815 15.40110564 39869
HYDRA-T
1 62692U 25009CM  25276.21012960  .00151842  00000-0  36553-2 0  9999
2 62692  97.3998 357.3139 0001103  26.7154 333.4148 15.40681155 39872
JINJUSat 1B
1 63210U 25052A   25276.45039611  .00034665  00000-0  14447-2 0  9993
2 63210  97.4237 169.1973 0001627 289.2585  70.8476 15.23623606 30871
NUSHSAT 1
1 63211U 25052B   25276.22044175  .00036508  00000-0  14951-2 0  9998
2 63211  97.4233 169.0184 0001576 306.8439  53.2653 15.24203056 30841
TEVEL2-4
1 63213U 25052D   25277.64020772  .00025608  00000-0  10634-2 0  9997
2 63213  97.4149 170.1097 0001524 349.4279  10.6925 15.23811860 31053
TEVEL2-5
1 63214U 25052E   25277.64304282  .00025637  00000-0  10660-2 0  9990
2 63214  97.4146 170.1067 0001501 346.6149  13.5048 15.23766327 31053
TEVEL2-6
1 63215U 25052F   25276.26915880  .00034940  00000-0  14546-2 0  9994
2 63215  97.4150 168.7397 0001777 351.2741   8.8465 15.23659097 30844
TEVEL2-1
1 63217U 25052H   25276.23255424  .00034474  00000-0  14468-2 0  9999
2 63217  97.4128 168.5705 0002552   4.5683 355.5577 15.23388008 30833
TEVEL2-3
1 63218U 25052J   25276.23249967  .00034129  00000-0  14319-2 0  9997
2 63218  97.4133 168.5734 0002661   7.2951 352.8324 15.23397992 30833
TEVEL2-2
1 63219U 25052K   25277.67835089  .00024297  00000-0  10200-2 0  9993
2 63219  97.4126 169.9985 0002373 359.3514   0.7719 15.23453198 31058
TEVEL2-9
1 63237U 25052AD  25277.44592683  .00024877  00000-0  10859-2 0  9992
2 63237  97.4194 169.5649 0006652 344.9415  15.1622 15.22106531 30990
TEVEL2-7
1 63238U 25052AE  25277.45411764  .00024616  00000-0  10778-2 0  9995
2 63238  97.4193 169.5587 0006748 344.4297  15.6730 15.22003003 30995
TEVEL2-8
1 63239U 25052AF  25276.14354288  .00031869  00000-0  13967-2 0  9999
2 63239  97.4192 168.2535 0006947 350.1363   9.9736 15.21913455 30793
HYDRA-W
1 63490U 25052BL  25276.65897879  .00076982  00000-0  25481-2 0  9991
2 63490  97.4130 170.0107 0008129 342.1658  17.9297 15.30991055 30964
HADES-ICM (SO-125)
1 63492U 25052BN  25276.65580020  .00071831  00000-0  24509-2 0  9998
2 63492  97.4143 169.8793 0008836 344.3674  15.7292 15.30025528 30957
